Regional Weather Roundup
Issued by NWS

Home | Current Version | Previous Version | Graphics & Text | Print | Product List | Glossary Off
Versions: 1 2 3 4 5 6 7 8 9 10 11 12 13 14 15 16 17 18 19 20 21 22 23 24 25 26 27 28 29 30 31 32 33 34 35 36 37 38 39 40 41 42 43 44 45 46 47 48 49 50

000
ASUS43 KTOP 032208
RWRKS

WEATHER ROUNDUP FOR KANSAS
NATIONAL WEATHER SERVICE GOODLAND KS
500 PM CDT FRI JUL 03 2015

NOTE:  "FAIR" INDICATES FEW OR NO CLOUDS BELOW 12,000 FEET WITH NO
SIGNIFICANT WEATHER AND/OR OBSTRUCTIONS TO VISIBILITY.

KSZ001>006-013>018-027>032-041>047-032300-
NORTHWEST KANSAS

CITY           SKY/WX    TMP DP  RH WIND       PRES   REMARKS
GOODLAND       MOSUNNY   83  55  38 SE5       30.03F
HAYS           SUNNY     84  59  42 NE14      29.98F
HILL CITY      SUNNY     86  58  38 NE8       29.99F
RUSSELL        PTSUNNY   85  59  41 VRB6      29.96F
$$

KSZ061>065-074>080-084>089-032300-
SOUTHWEST KANSAS

CITY           SKY/WX    TMP DP  RH WIND       PRES   REMARKS
DODGE CITY     SUNNY     86  59  39 NE8       29.98F
ELKHART          N/A     81  63  54 S10         N/A
GARDEN CITY    SUNNY     88  59  37 SE7       29.97F
GREAT BEND     MOSUNNY   82  61  47 N6        29.98F
LIBERAL        PTSUNNY   72  59  64 CALM        N/A
PRATT          SUNNY     86  54  32 N10G18    29.98F
$$

KSZ066>073-081>083-090>101-032300-
SOUTHEAST KANSAS

CITY           SKY/WX    TMP DP  RH WIND       PRES   REMARKS
CHANUTE        CLOUDY    81  67  62 NE13G20   29.91S
COFFEYVILLE    SUNNY     85  71  63 NE15      29.88S
HUTCHINSON     SUNNY     85  62  46 N9        29.95F
MEDICINE LODGE   N/A     87  60  40 N8        29.93F
NEWTON         PTSUNNY   79  63  57 NE9       29.98F
PARSONS        CLOUDY    82  72  71 NE8       29.91F
WICHITA INTL   MOSUNNY   85  62  46 NE10G20   29.93F
WICHITA JABRA  MOSUNNY   82  65  56 N14       29.94F
WICHITA MCCONL MOSUNNY   82  66  58 NE13      29.94F
WINFIELD       MOSUNNY   87  64  46 N13       29.92F
$$

KSZ007>012-019>026-033>040-048>060-102>105-032300-
NORTHEAST KANSAS

CITY           SKY/WX    TMP DP  RH WIND       PRES   REMARKS
CONCORDIA      MOSUNNY   79  63  57 NE9       29.98F
EMPORIA        CLOUDY    79  65  62 NE8       29.94F
LAWRENCE       SUNNY     80  59  48 VRB6      29.94F
MANHATTAN      MOSUNNY   81  64  56 NE10      29.95F
MARYSVILLE     SUNNY     79  55  44 NE5       29.97S
OLATHE IND     SUNNY     80  60  50 N9        29.94F
OLATHE EXE     SUNNY     79  58  48 NE10      29.93F
SALINA         MOSUNNY   84  59  42 NE7       29.96F
TOPEKA BILLARD SUNNY     80  59  48 NE7       29.95S
TOPEKA FORBES    N/A    N/A N/A N/A MISG      29.95S
$$


USA.gov is the U.S. government's official web portal to all federal, state and local government web resources and services.